Location: Москва
(55.7504°N, 37.6175°E)
Time: 07:29:35
(UTC+03:00)

Nauka - Pass Details

Date: 30 September 2021
Orbit: 417 x 423 km, 51.6° (Epoch: 19 October)

Event Time Altitude Azimuth Distance (km) Brightness Sun altitude
Rises 20:29:50 0° 273° (W) 2,367 ? -20.3°
Reaches altitude 10° 20:32:33 10° 250° (WSW) 1,501 ? -20.7°
Maximum altitude 20:34:35 15° 212° (SSW) 1,219 ? -20.9°
Enters shadow 20:34:39 15° 211° (SSW) 1,219 ? -20.9°
